カタログに戻る

FENGYUN 1C DEB

運用中SSO
NORAD 33722·DEBRIS·🇨🇳 China

打ち上げ May 10, 1999 から Taiyuan Satellite Launch Center

Loading…

次のパス (今後24時間)

TLE

最新Source: Space-Track

元期: Sep 12, 2026, 18:18 UTC

1 33722U 99025DHK 26255.76271236  .00000657  00000-0  27883-3 0  9995
2 33722  98.5660 267.3806 0157596 175.8827 184.3690 14.22054661960418

AllMySatでFENGYUN 1C DEBをリアルタイム追跡

Download on the App Store